User: anonymous   Login
Location: Newark
(49.3000°N, 9.4667°E)
Time: 02:11:35
(UTC+00:00)
Language:

Courier 1B - Orbit

View from above orbital plane
View from above orbital plane
View from above satellite
View from above satellite

Ground track
Ground track

The orbit data is extracted from the following two-line orbital elements,

1    58U 60013A   19295.14351993  .00000090  00000-0  27577-5 0  9996
2    58  28.3278 228.7089 0165027 247.9751 110.3187 13.46319430906872
Epoch (UTC): 22 October 2019 03:26:40
Eccentricity: 0.0165027
inclination: 28.3278°
perigee height: 962 km
apogee height: 1209 km
right ascension of ascending node: 228.7089°
argument of perigee: 247.9751°
revolutions per day: 13.46319430
mean anomaly at epoch: 110.3187°
orbit number at epoch: 90687

The dashed part of the orbit path shows where the satellite is in the earth's shadow,  

DLR